QPF
0.00 0.00 0.00 0.01 0.01 0.01 0.00 0.00 0.00 0.00 0.00 0.00 0.00 0.00 0.00 0.00 0.00 0.00 0.00 0.00 0.00 0.00 0.00 0.00 0.01 0.01 0.01 0.01 0.01 0.01 0.01 0.01 0.01 0.00 0.01 0.01 0.01 0.01 0.01 0.01 0.01 0.01 0.01 0.02 0.02 0.02 0.01 0.01 0.00
0.00 0.00 0.01 0.01 0.01 0.00 0.00 0.00 0.00 0.00 0.00 0.00 0.00 0.00 0.00 0.00 0.00 0.00 0.00 0.00 0.00 0.00 0.00 0.00 0.01 0.01 0.01 0.01 0.01 0.02 0.01 0.01 0.01 0.01 0.01 0.02 0.02 0.01 0.01 0.01 0.01 0.01 0.02 0.02 0.02 0.01 0.01 0.00 0.00
0.00 0.00 0.01 0.01 0.01 0.00 0.00 0.00 0.00 0.00 0.00 0.00 0.00 0.00 0.00 0.00 0.00 0.00 0.00 0.00 0.00 0.00 0.00 0.00 0.01 0.01 0.01 0.02 0.02 0.02 0.02 0.02 0.02 0.02 0.02 0.04 0.03 0.02 0.02 0.02 0.01 0.01 0.01 0.01 0.01 0.01 0.01 0.00 0.00
0.00 0.00 0.01 0.01 0.00 0.00 0.00 0.00 0.00 0.00 0.00 0.00 0.00 0.00 0.00 0.00 0.00 0.00 0.00 0.00 0.00 0.00 0.00 0.00 0.01 0.01 0.02 0.02 0.02 0.02 0.02 0.03 0.03 0.03 0.03 0.04 0.03 0.02 0.02 0.02 0.01 0.01 0.01 0.01 0.01 0.01 0.00 0.00 0.00
0.00 0.01 0.01 0.01 0.00 0.00 0.00 0.00 0.00 0.00 0.00 0.00 0.00 0.00 0.00 0.00 0.00 0.00 0.00 0.00 0.00 0.01 0.01 0.01 0.01 0.01 0.02 0.03 0.03 0.03 0.03 0.04 0.05 0.05 0.05 0.05 0.04 0.03 0.02 0.02 0.02 0.01 0.01 0.01 0.01 0.00 0.00 0.00 0.00
0.00 0.01 0.01 0.00 0.00 0.00 0.00 0.00 0.00 0.00 0.00 0.00 0.00 0.00 0.00 0.00 0.00 0.00 0.00 0.00 0.00 0.00 0.01 0.02 0.02 0.02 0.03 0.04 0.04 0.05 0.05 0.06 0.07 0.07 0.07 0.07 0.05 0.04 0.03 0.02 0.02 0.02 0.01 0.01 0.01 0.01 0.00 0.00 0.00
0.00 0.00 0.00 0.00 0.00 0.01 0.00 0.00 0.00 0.00 0.00 0.00 0.00 0.01 0.01 0.00 0.01 0.01 0.00 0.00 0.00 0.01 0.02 0.03 0.03 0.04 0.04 0.05 0.06 0.07 0.07 0.08 0.10 0.10 0.10 0.10 0.07 0.05 0.04 0.03 0.02 0.02 0.02 0.01 0.01 0.01 0.00 0.00 0.00
0.00 0.01 0.00 0.00 0.00 0.00 0.00 0.00 0.00 0.01 0.01 0.00 0.00 0.01 0.01 0.01 0.01 0.01 0.02 0.01 0.01 0.01 0.02 0.03 0.04 0.06 0.06 0.07 0.08 0.08 0.09 0.11 0.14 0.14 0.13 0.12 0.10 0.08 0.06 0.04 0.03 0.03 0.02 0.01 0.01 0.01 0.00 0.00 0.00
0.01 0.01 0.01 0.00 0.00 0.00 0.00 0.00 0.00 0.01 0.01 0.01 0.01 0.01 0.01 0.01 0.01 0.02 0.03 0.02 0.02 0.02 0.03 0.04 0.06 0.07 0.08 0.10 0.11 0.12 0.13 0.15 0.18 0.18 0.17 0.17 0.13 0.10 0.07 0.04 0.03 0.03 0.02 0.02 0.01 0.01 0.00 0.00 0.00
0.01 0.01 0.00 0.00 0.00 0.00 0.00 0.00 0.01 0.01 0.01 0.01 0.01 0.02 0.01 0.01 0.02 0.03 0.03 0.03 0.02 0.02 0.03 0.04 0.06 0.07 0.09 0.12 0.14 0.16 0.17 0.19 0.20 0.18 0.17 0.16 0.13 0.11 0.09 0.07 0.05 0.03 0.03 0.02 0.02 0.01 0.00 0.00 0.00
0.01 0.01 0.00 0.00 0.00 0.01 0.01 0.01 0.01 0.02 0.01 0.01 0.02 0.02 0.02 0.02 0.03 0.03 0.04 0.03 0.02 0.02 0.03 0.04 0.06 0.08 0.09 0.11 0.13 0.16 0.18 0.20 0.20 0.19 0.18 0.16 0.15 0.12 0.10 0.09 0.07 0.04 0.03 0.02 0.02 0.01 0.00 0.00 0.00
0.02 0.01 0.00 0.00 0.00 0.00 0.01 0.01 0.01 0.02 0.02 0.01 0.02 0.03 0.03 0.03 0.03 0.03 0.04 0.04 0.04 0.03 0.03 0.05 0.07 0.08 0.09 0.10 0.12 0.15 0.17 0.18 0.18 0.18 0.18 0.18 0.16 0.13 0.10 0.08 0.06 0.04 0.03 0.02 0.02 0.01 0.00 0.00 0.00
0.02 0.01 0.00 0.00 0.00 0.00 0.01 0.01 0.01 0.01 0.01 0.02 0.02 0.03 0.04 0.04 0.03 0.02 0.03 0.05 0.04 0.04 0.05 0.05 0.06 0.08 0.09 0.11 0.13 0.15 0.16 0.16 0.17 0.18 0.17 0.17 0.15 0.12 0.10 0.09 0.07 0.05 0.03 0.02 0.01 0.01 0.00 0.00 0.00
0.01 0.01 0.00 0.00 0.00 0.00 0.02 0.01 0.01 0.01 0.01 0.02 0.03 0.03 0.04 0.04 0.03 0.02 0.02 0.04 0.05 0.05 0.06 0.07 0.06 0.08 0.10 0.11 0.13 0.15 0.16 0.17 0.19 0.20 0.17 0.16 0.15 0.12 0.10 0.09 0.07 0.06 0.04 0.02 0.02 0.01 0.01 0.00 0.00
0.01 0.01 0.00 0.00 0.00 0.00 0.02 0.02 0.01 0.01 0.01 0.02 0.03 0.03 0.03 0.03 0.03 0.03 0.02 0.02 0.03 0.05 0.07 0.08 0.08 0.09 0.11 0.12 0.13 0.16 0.19 0.20 0.20 0.20 0.20 0.18 0.17 0.15 0.12 0.09 0.08 0.07 0.05 0.04 0.02 0.02 0.01 0.00 0.00
0.01 0.01 0.01 0.00 0.00 0.00 0.01 0.02 0.01 0.01 0.02 0.03 0.03 0.03 0.03 0.03 0.03 0.03 0.03 0.02 0.02 0.04 0.07 0.08 0.09 0.11 0.12 0.13 0.15 0.18 0.20 0.22 0.22 0.22 0.22 0.21 0.19 0.17 0.14 0.12 0.09 0.07 0.07 0.06 0.04 0.03 0.01 0.01 0.00
0.00 0.01 0.00 0.00 0.00 0.01 0.01 0.01 0.02 0.02 0.03 0.03 0.03 0.03 0.03 0.02 0.03 0.03 0.03 0.03 0.03 0.04 0.06 0.08 0.08 0.11 0.12 0.13 0.17 0.20 0.22 0.23 0.25 0.24 0.22 0.21 0.21 0.18 0.16 0.15 0.12 0.10 0.09 0.08 0.06 0.05 0.03 0.01 0.00
0.00 0.00 0.00 0.00 0.00 0.01 0.01 0.01 0.02 0.03 0.04 0.03 0.03 0.03 0.03 0.02 0.03 0.03 0.02 0.02 0.03 0.04 0.05 0.07 0.08 0.12 0.14 0.16 0.19 0.25 0.27 0.26 0.26 0.26 0.24 0.22 0.22 0.21 0.17 0.16 0.14 0.12 0.10 0.09 0.09 0.07 0.04 0.01 0.00
0.00 0.00 0.00 0.00 0.00 0.00 0.01 0.01 0.02 0.03 0.05 0.04 0.04 0.03 0.03 0.02 0.03 0.03 0.02 0.02 0.03 0.04 0.04 0.06 0.08 0.13 0.17 0.18 0.20 0.28 0.32 0.29 0.29 0.27 0.24 0.23 0.22 0.22 0.20 0.16 0.16 0.13 0.11 0.09 0.08 0.08 0.07 0.04 0.01
0.00 0.00 0.00 0.00 0.00 0.00 0.01 0.01 0.02 0.03 0.05 0.05 0.04 0.03 0.04 0.03 0.03 0.03 0.02 0.03 0.03 0.04 0.04 0.05 0.08 0.11 0.19 0.21 0.22 0.29 0.36 0.33 0.31 0.32 0.26 0.23 0.22 0.24 0.23 0.19 0.16 0.13 0.11 0.12 0.10 0.07 0.06 0.05 0.03
0.00 0.00 0.00 0.01 0.01 0.01 0.01 0.02 0.02 0.02 0.03 0.03 0.03 0.03 0.03 0.03 0.04 0.03 0.03 0.03 0.05 0.06 0.06 0.06 0.08 0.10 0.16 0.25 0.31 0.35 0.44 0.42 0.36 0.37 0.34 0.25 0.22 0.22 0.24 0.22 0.20 0.16 0.13 0.12 0.12 0.09 0.07 0.05 0.03
0.00 0.00 0.00 0.01 0.01 0.02 0.02 0.02 0.02 0.01 0.01 0.02 0.02 0.02 0.02 0.03 0.03 0.03 0.03 0.03 0.04 0.06 0.08 0.08 0.08 0.11 0.17 0.24 0.34 0.40 0.47 0.48 0.40 0.36 0.36 0.32 0.26 0.23 0.21 0.23 0.22 0.19 0.15 0.12 0.12 0.10 0.07 0.05 0.04
0.00 0.00 0.00 0.00 0.01 0.01 0.01 0.02 0.01 0.01 0.01 0.01 0.02 0.03 0.03 0.03 0.04 0.03 0.04 0.04 0.04 0.07 0.08 0.08 0.08 0.12 0.17 0.24 0.30 0.38 0.46 0.48 0.48 0.45 0.43 0.37 0.31 0.27 0.22 0.21 0.22 0.22 0.19 0.14 0.11 0.09 0.07 0.05 0.03
0.01 0.00 0.00 0.00 0.01 0.01 0.01 0.02 0.02 0.02 0.03 0.02 0.02 0.03 0.05 0.05 0.04 0.03 0.04 0.04 0.05 0.07 0.08 0.08 0.08 0.12 0.18 0.24 0.30 0.34 0.43 0.47 0.48 0.51 0.51 0.43 0.36 0.29 0.26 0.23 0.22 0.21 0.20 0.18 0.13 0.09 0.06 0.05 0.03
0.01 0.01 0.01 0.01 0.01 0.01 0.01 0.02 0.03 0.02 0.02 0.02 0.03 0.04 0.05 0.05 0.04 0.04 0.04 0.04 0.05 0.08 0.09 0.10 0.10 0.13 0.18 0.23 0.30 0.33 0.36 0.41 0.44 0.45 0.46 0.45 0.43 0.32 0.25 0.26 0.23 0.21 0.18 0.17 0.15 0.12 0.07 0.04 0.03
0.00 0.00 0.01 0.01 0.00 0.01 0.01 0.02 0.02 0.01 0.01 0.01 0.02 0.03 0.04 0.04 0.04 0.04 0.04 0.04 0.05 0.06 0.07 0.08 0.10 0.13 0.18 0.21 0.26 0.32 0.33 0.35 0.37 0.39 0.39 0.41 0.41 0.36 0.26 0.26 0.25 0.20 0.18 0.17 0.16 0.13 0.09 0.06 0.04
0.00 0.00 0.00 0.01 0.01 0.01 0.02 0.02 0.01 0.00 0.00 0.00 0.00 0.01 0.02 0.04 0.04 0.03 0.04 0.04 0.04 0.05 0.07 0.08 0.11 0.12 0.15 0.17 0.20 0.30 0.31 0.34 0.36 0.34 0.34 0.36 0.35 0.35 0.32 0.27 0.27 0.22 0.18 0.17 0.16 0.14 0.09 0.06 0.05
0.00 0.00 0.00 0.01 0.02 0.01 0.01 0.01 0.01 0.01 0.00 0.00 0.01 0.01 0.01 0.02 0.03 0.03 0.03 0.03 0.04 0.04 0.05 0.06 0.11 0.12 0.14 0.15 0.15 0.25 0.28 0.34 0.35 0.35 0.36 0.33 0.32 0.33 0.34 0.31 0.29 0.24 0.20 0.18 0.17 0.14 0.10 0.06 0.04
0.00 0.00 0.00 0.01 0.01 0.02 0.01 0.01 0.01 0.01 0.01 0.01 0.01 0.01 0.01 0.02 0.02 0.02 0.03 0.03 0.03 0.04 0.05 0.06 0.07 0.11 0.14 0.16 0.16 0.23 0.27 0.32 0.35 0.31 0.34 0.36 0.32 0.32 0.33 0.32 0.30 0.27 0.21 0.18 0.18 0.15 0.10 0.07 0.05
0.00 0.00 0.00 0.01 0.01 0.01 0.02 0.02 0.01 0.00 0.00 0.00 0.01 0.01 0.01 0.01 0.02 0.02 0.02 0.02 0.03 0.04 0.04 0.05 0.06 0.10 0.13 0.16 0.18 0.20 0.24 0.30 0.34 0.32 0.28 0.31 0.33 0.32 0.33 0.34 0.30 0.28 0.24 0.20 0.18 0.16 0.12 0.07 0.04
MSLP
1013.30 1013.61 1014.14 1014.79 1015.45 1015.98 1016.25 1016.21 1015.84 1015.20 1014.43 1013.67 1013.05 1012.67 1012.55 1012.62 1012.80 1012.93 1012.89 1012.61 1012.08 1011.34 1010.50 1009.66 1008.96 1008.46 1008.18 1008.11 1008.17 1008.32 1008.47 1008.61 1008.71 1008.82 1008.96 1009.15 1009.41 1009.73 1010.09 1010.44 1010.76 1011.03 1011.25 1011.44 1011.62 1011.81 1012.03 1012.26 1012.49
1013.53 1013.91 1014.49 1015.17 1015.82 1016.32 1016.53 1016.41 1015.95 1015.23 1014.40 1013.60 1012.97 1012.60 1012.50 1012.63 1012.87 1013.07 1013.12 1012.91 1012.44 1011.74 1010.91 1010.07 1009.33 1008.78 1008.44 1008.29 1008.30 1008.40 1008.53 1008.65 1008.77 1008.88 1009.02 1009.20 1009.44 1009.73 1010.04 1010.36 1010.65 1010.91 1011.13 1011.34 1011.56 1011.80 1012.06 1012.34 1012.61
1013.84 1014.27 1014.89 1015.59 1016.24 1016.72 1016.90 1016.75 1016.26 1015.53 1014.69 1013.88 1013.25 1012.86 1012.75 1012.85 1013.07 1013.26 1013.30 1013.12 1012.68 1012.02 1011.23 1010.42 1009.70 1009.13 1008.75 1008.55 1008.50 1008.53 1008.60 1008.67 1008.74 1008.82 1008.93 1009.08 1009.29 1009.54 1009.83 1010.13 1010.42 1010.70 1010.96 1011.22 1011.49 1011.79 1012.11 1012.45 1012.78
1014.27 1014.75 1015.39 1016.10 1016.75 1017.21 1017.39 1017.25 1016.80 1016.11 1015.30 1014.53 1013.89 1013.48 1013.30 1013.31 1013.42 1013.52 1013.49 1013.27 1012.84 1012.22 1011.49 1010.74 1010.05 1009.51 1009.12 1008.87 1008.75 1008.69 1008.67 1008.65 1008.64 1008.65 1008.70 1008.81 1008.99 1009.23 1009.51 1009.83 1010.15 1010.47 1010.79 1011.12 1011.47 1011.84 1012.23 1012.62 1012.99
1014.82 1015.33 1015.99 1016.69 1017.32 1017.78 1017.98 1017.88 1017.50 1016.90 1016.18 1015.46 1014.84 1014.38 1014.10 1013.97 1013.92 1013.86 1013.70 1013.40 1012.94 1012.35 1011.69 1011.01 1010.40 1009.89 1009.50 1009.22 1009.02 1008.86 1008.72 1008.59 1008.48 1008.40 1008.39 1008.46 1008.62 1008.86 1009.17 1009.53 1009.91 1010.30 1010.69 1011.10 1011.52 1011.95 1012.39 1012.83 1013.22
1015.47 1016.01 1016.66 1017.33 1017.93 1018.37 1018.60 1018.56 1018.28 1017.79 1017.19 1016.55 1015.95 1015.45 1015.06 1014.76 1014.51 1014.26 1013.94 1013.53 1013.02 1012.45 1011.84 1011.24 1010.70 1010.25 1009.87 1009.55 1009.27 1009.00 1008.74 1008.49 1008.27 1008.11 1008.04 1008.08 1008.24 1008.50 1008.86 1009.27 1009.72 1010.19 1010.66 1011.14 1011.62 1012.09 1012.57 1013.02 1013.42
1016.18 1016.72 1017.33 1017.95 1018.49 1018.91 1019.14 1019.16 1018.99 1018.63 1018.16 1017.62 1017.06 1016.53 1016.04 1015.58 1015.13 1014.67 1014.17 1013.64 1013.08 1012.50 1011.94 1011.42 1010.95 1010.54 1010.16 1009.81 1009.46 1009.10 1008.73 1008.37 1008.06 1007.83 1007.72 1007.75 1007.91 1008.20 1008.60 1009.07 1009.59 1010.12 1010.65 1011.18 1011.70 1012.21 1012.69 1013.13 1013.53
1016.88 1017.40 1017.95 1018.48 1018.95 1019.30 1019.52 1019.59 1019.50 1019.28 1018.93 1018.51 1018.01 1017.48 1016.91 1016.31 1015.69 1015.04 1014.39 1013.74 1013.11 1012.53 1012.00 1011.53 1011.12 1010.74 1010.37 1009.99 1009.58 1009.14 1008.68 1008.24 1007.86 1007.59 1007.45 1007.46 1007.64 1007.95 1008.38 1008.89 1009.45 1010.03 1010.61 1011.17 1011.71 1012.23 1012.71 1013.14 1013.52
1017.55 1018.02 1018.49 1018.91 1019.26 1019.53 1019.70 1019.78 1019.76 1019.64 1019.42 1019.11 1018.69 1018.18 1017.57 1016.88 1016.13 1015.35 1014.57 1013.82 1013.14 1012.54 1012.03 1011.59 1011.21 1010.85 1010.48 1010.07 1009.61 1009.11 1008.60 1008.10 1007.68 1007.38 1007.22 1007.23 1007.40 1007.72 1008.16 1008.69 1009.26 1009.86 1010.46 1011.05 1011.60 1012.13 1012.60 1013.03 1013.40
1018.18 1018.59 1018.96 1019.24 1019.46 1019.61 1019.70 1019.75 1019.76 1019.72 1019.60 1019.39 1019.06 1018.59 1017.99 1017.27 1016.45 1015.58 1014.72 1013.91 1013.18 1012.56 1012.05 1011.62 1011.24 1010.88 1010.49 1010.05 1009.56 1009.02 1008.48 1007.96 1007.52 1007.20 1007.02 1007.02 1007.17 1007.47 1007.89 1008.40 1008.97 1009.57 1010.18 1010.78 1011.36 1011.90 1012.39 1012.83 1013.21
1018.82 1019.17 1019.41 1019.55 1019.61 1019.61 1019.59 1019.57 1019.57 1019.56 1019.52 1019.39 1019.14 1018.75 1018.18 1017.47 1016.64 1015.75 1014.85 1014.00 1013.24 1012.60 1012.06 1011.61 1011.21 1010.82 1010.40 1009.93 1009.41 1008.86 1008.30 1007.78 1007.34 1007.01 1006.82 1006.78 1006.90 1007.15 1007.52 1008.00 1008.54 1009.14 1009.76 1010.39 1011.01 1011.60 1012.13 1012.61 1013.01
1019.54 1019.81 1019.93 1019.92 1019.80 1019.63 1019.47 1019.35 1019.30 1019.28 1019.26 1019.20 1019.02 1018.70 1018.20 1017.54 1016.74 1015.86 1014.97 1014.11 1013.33 1012.65 1012.07 1011.57 1011.11 1010.67 1010.20 1009.70 1009.16 1008.60 1008.04 1007.54 1007.10 1006.77 1006.57 1006.50 1006.56 1006.75 1007.06 1007.48 1008.00 1008.60 1009.25 1009.93 1010.61 1011.27 1011.88 1012.41 1012.86
1020.38 1020.58 1020.58 1020.40 1020.11 1019.77 1019.45 1019.20 1019.04 1018.98 1018.95 1018.91 1018.79 1018.53 1018.11 1017.52 1016.78 1015.95 1015.08 1014.22 1013.41 1012.68 1012.03 1011.45 1010.91 1010.38 1009.85 1009.31 1008.75 1008.19 1007.66 1007.18 1006.77 1006.45 1006.23 1006.11 1006.12 1006.25 1006.50 1006.88 1007.38 1007.98 1008.68 1009.44 1010.22 1010.97 1011.67 1012.29 1012.80
1021.36 1021.48 1021.36 1021.04 1020.58 1020.07 1019.58 1019.18 1018.91 1018.76 1018.68 1018.63 1018.52 1018.31 1017.96 1017.44 1016.77 1015.99 1015.14 1014.28 1013.43 1012.63 1011.88 1011.19 1010.54 1009.91 1009.30 1008.71 1008.14 1007.60 1007.10 1006.66 1006.29 1005.98 1005.76 1005.62 1005.58 1005.65 1005.85 1006.20 1006.70 1007.34 1008.11 1008.96 1009.85 1010.72 1011.53 1012.23 1012.80
1022.41 1022.46 1022.24 1021.79 1021.18 1020.51 1019.87 1019.32 1018.91 1018.64 1018.49 1018.39 1018.27 1018.09 1017.77 1017.31 1016.70 1015.96 1015.13 1014.24 1013.33 1012.43 1011.56 1010.72 1009.94 1009.19 1008.50 1007.86 1007.28 1006.77 1006.32 1005.94 1005.62 1005.35 1005.14 1004.99 1004.92 1004.95 1005.13 1005.47 1005.99 1006.68 1007.53 1008.49 1009.50 1010.49 1011.41 1012.19 1012.83
1023.41 1023.40 1023.09 1022.55 1021.84 1021.04 1020.27 1019.58 1019.03 1018.64 1018.38 1018.20 1018.05 1017.85 1017.55 1017.13 1016.55 1015.82 1014.98 1014.04 1013.04 1012.02 1011.00 1010.01 1009.07 1008.20 1007.42 1006.74 1006.17 1005.70 1005.31 1005.01 1004.75 1004.54 1004.36 1004.22 1004.14 1004.17 1004.34 1004.69 1005.24 1006.00 1006.93 1007.99 1009.11 1010.22 1011.23 1012.09 1012.78
1024.23 1024.16 1023.81 1023.21 1022.43 1021.56 1020.69 1019.89 1019.21 1018.70 1018.32 1018.05 1017.82 1017.59 1017.28 1016.86 1016.28 1015.55 1014.66 1013.65 1012.54 1011.37 1010.18 1009.02 1007.93 1006.94 1006.09 1005.38 1004.82 1004.40 1004.09 1003.87 1003.70 1003.55 1003.42 1003.32 1003.26 1003.30 1003.48 1003.86 1004.45 1005.26 1006.27 1007.42 1008.63 1009.82 1010.91 1011.84 1012.57
1024.72 1024.64 1024.28 1023.68 1022.90 1022.00 1021.07 1020.19 1019.41 1018.77 1018.27 1017.89 1017.58 1017.28 1016.94 1016.49 1015.89 1015.12 1014.18 1013.07 1011.83 1010.51 1009.16 1007.83 1006.59 1005.49 1004.57 1003.84 1003.30 1002.94 1002.71 1002.58 1002.50 1002.43 1002.36 1002.30 1002.28 1002.34 1002.55 1002.96 1003.59 1004.45 1005.51 1006.72 1007.99 1009.24 1010.40 1011.38 1012.17
1024.85 1024.78 1024.47 1023.93 1023.20 1022.33 1021.39 1020.46 1019.59 1018.84 1018.22 1017.72 1017.31 1016.93 1016.53 1016.04 1015.40 1014.58 1013.56 1012.35 1010.99 1009.52 1008.00 1006.52 1005.16 1003.96 1002.98 1002.23 1001.72 1001.41 1001.26 1001.21 1001.21 1001.22 1001.21 1001.20 1001.22 1001.32 1001.55 1001.99 1002.65 1003.54 1004.63 1005.87 1007.18 1008.48 1009.67 1010.71 1011.55
1024.66 1024.65 1024.44 1024.01 1023.38 1022.59 1021.67 1020.72 1019.78 1018.92 1018.17 1017.54 1017.02 1016.55 1016.07 1015.53 1014.85 1013.97 1012.88 1011.59 1010.11 1008.50 1006.85 1005.25 1003.77 1002.49 1001.46 1000.70 1000.20 999.93 999.84 999.85 999.91 999.97 1000.02 1000.05 1000.11 1000.24 1000.51 1000.96 1001.64 1002.55 1003.66 1004.91 1006.23 1007.55 1008.78 1009.86 1010.77
1024.28 1024.38 1024.31 1024.04 1023.55 1022.85 1021.98 1021.01 1020.00 1019.02 1018.14 1017.38 1016.73 1016.17 1015.62 1015.02 1014.29 1013.37 1012.23 1010.86 1009.29 1007.59 1005.84 1004.13 1002.56 1001.21 1000.14 999.36 998.86 998.60 998.53 998.57 998.66 998.75 998.82 998.89 998.98 999.15 999.44 999.93 1000.62 1001.54 1002.64 1003.89 1005.21 1006.54 1007.80 1008.93 1009.91
1023.92 1024.16 1024.27 1024.17 1023.83 1023.23 1022.40 1021.39 1020.30 1019.20 1018.17 1017.27 1016.49 1015.82 1015.19 1014.54 1013.78 1012.84 1011.66 1010.25 1008.63 1006.87 1005.05 1003.27 1001.63 1000.23 999.11 998.29 997.76 997.48 997.38 997.40 997.48 997.57 997.66 997.74 997.87 998.07 998.41 998.92 999.64 1000.56 1001.66 1002.90 1004.22 1005.55 1006.83 1008.01 1009.06
1023.78 1024.18 1024.46 1024.52 1024.31 1023.78 1022.96 1021.90 1020.70 1019.45 1018.26 1017.20 1016.29 1015.51 1014.82 1014.13 1013.35 1012.39 1011.22 1009.80 1008.16 1006.37 1004.51 1002.69 1001.01 999.56 998.38 997.50 996.90 996.55 996.38 996.34 996.38 996.44 996.52 996.62 996.78 997.04 997.43 997.99 998.75 999.69 1000.79 1002.02 1003.33 1004.66 1005.95 1007.17 1008.30
1023.99 1024.53 1024.95 1025.14 1025.01 1024.50 1023.64 1022.49 1021.15 1019.74 1018.38 1017.16 1016.12 1015.24 1014.49 1013.77 1012.98 1012.04 1010.88 1009.48 1007.86 1006.08 1004.22 1002.38 1000.66 999.16 997.91 996.94 996.24 995.78 995.50 995.36 995.31 995.33 995.39 995.52 995.73 996.05 996.52 997.16 997.97 998.95 1000.08 1001.31 1002.61 1003.93 1005.23 1006.47 1007.64
1024.57 1025.21 1025.72 1025.97 1025.84 1025.30 1024.35 1023.07 1021.57 1019.99 1018.46 1017.09 1015.93 1014.97 1014.17 1013.43 1012.65 1011.74 1010.62 1009.26 1007.68 1005.92 1004.08 1002.24 1000.50 998.94 997.60 996.53 995.69 995.09 994.67 994.40 994.25 994.20 994.25 994.41 994.69 995.11 995.68 996.43 997.33 998.37 999.52 1000.76 1002.05 1003.36 1004.65 1005.91 1007.10
1025.44 1026.10 1026.63 1026.85 1026.67 1026.02 1024.94 1023.50 1021.83 1020.09 1018.42 1016.93 1015.68 1014.66 1013.83 1013.09 1012.33 1011.45 1010.37 1009.07 1007.54 1005.83 1004.01 1002.17 1000.41 998.79 997.37 996.17 995.18 994.41 993.82 993.41 993.15 993.04 993.08 993.28 993.65 994.19 994.91 995.78 996.79 997.92 999.12 1000.38 1001.66 1002.95 1004.22 1005.45 1006.64
1026.39 1027.02 1027.48 1027.60 1027.28 1026.48 1025.24 1023.64 1021.83 1019.96 1018.19 1016.63 1015.33 1014.28 1013.44 1012.71 1011.98 1011.14 1010.11 1008.85 1007.38 1005.71 1003.93 1002.11 1000.33 998.66 997.14 995.80 994.65 993.70 992.94 992.37 992.00 991.84 991.88 992.14 992.62 993.31 994.18 995.21 996.35 997.57 998.83 1000.11 1001.38 1002.64 1003.87 1005.08 1006.24
1027.23 1027.75 1028.06 1028.00 1027.50 1026.53 1025.12 1023.38 1021.47 1019.54 1017.73 1016.16 1014.87 1013.84 1013.02 1012.32 1011.61 1010.80 1009.81 1008.60 1007.17 1005.56 1003.82 1002.01 1000.22 998.49 996.88 995.41 994.10 992.97 992.04 991.32 990.85 990.64 990.69 991.03 991.63 992.47 993.51 994.70 995.98 997.30 998.62 999.92 1001.18 1002.40 1003.59 1004.75 1005.88
1027.75 1028.10 1028.19 1027.92 1027.21 1026.05 1024.51 1022.69 1020.75 1018.83 1017.08 1015.57 1014.34 1013.38 1012.61 1011.94 1011.26 1010.47 1009.51 1008.33 1006.94 1005.37 1003.67 1001.89 1000.09 998.33 996.64 995.05 993.59 992.30 991.20 990.35 989.78 989.52 989.60 990.00 990.73 991.72 992.92 994.27 995.68 997.10 998.48 999.80 1001.04 1002.23 1003.36 1004.47 1005.55
1027.83 1027.97 1027.82 1027.32 1026.40 1025.10 1023.47 1021.64 1019.75 1017.93 1016.31 1014.93 1013.83 1012.97 1012.27 1011.64 1010.98 1010.20 1009.24 1008.09 1006.73 1005.20 1003.54 1001.80 1000.01 998.23 996.48 994.79 993.21 991.77 990.54 989.56 988.90 988.60 988.69 989.16 989.98 991.11 992.46 993.94 995.47 996.97 998.40 999.73 1000.96 1002.10 1003.19 1004.24 1005.27
Thickness
5707 5709 5708 5701 5687 5676 5679 5693 5706 5713 5721 5732 5737 5736 5734 5732 5731 5731 5756 5767 5771 5772 5773 5773 5773 5772 5772 5773 5773 5773 5772 5772 5771 5770 5770 5769 5768 5767 5766 5765 5764 5762 5761 5759 5757 5755 5753 5751 5749
5701 5702 5697 5686 5672 5666 5677 5692 5700 5708 5718 5726 5729 5730 5729 5732 5742 5744 5749 5758 5763 5766 5767 5767 5767 5767 5767 5768 5768 5769 5768 5767 5767 5766 5766 5765 5764 5763 5762 5761 5760 5759 5757 5756 5754 5752 5750 5748 5746
5695 5694 5682 5672 5667 5668 5678 5693 5697 5705 5712 5714 5715 5721 5722 5725 5732 5734 5741 5750 5754 5757 5759 5760 5761 5761 5762 5762 5763 5763 5763 5763 5763 5762 5762 5761 5760 5759 5758 5757 5756 5755 5754 5752 5750 5748 5746 5744 5743
5684 5677 5669 5662 5667 5673 5679 5685 5689 5692 5698 5702 5703 5704 5712 5721 5723 5726 5735 5741 5744 5747 5751 5753 5754 5755 5756 5756 5757 5758 5758 5759 5758 5758 5757 5757 5756 5755 5754 5753 5752 5751 5750 5748 5746 5744 5743 5741 5740
5672 5662 5654 5653 5660 5667 5672 5677 5680 5678 5680 5685 5685 5687 5698 5712 5717 5721 5725 5729 5732 5737 5741 5744 5746 5748 5749 5750 5751 5752 5753 5754 5754 5754 5753 5752 5752 5751 5750 5749 5748 5747 5745 5744 5742 5740 5739 5738 5736
5654 5648 5640 5642 5651 5659 5662 5664 5666 5664 5666 5670 5670 5673 5686 5701 5706 5710 5715 5718 5722 5726 5731 5734 5737 5739 5741 5743 5745 5746 5747 5748 5748 5749 5749 5748 5748 5746 5745 5744 5743 5742 5742 5740 5738 5737 5735 5734 5733
5641 5634 5632 5636 5640 5645 5650 5652 5649 5649 5651 5655 5659 5660 5674 5687 5693 5697 5702 5707 5712 5716 5720 5723 5726 5730 5732 5735 5737 5740 5741 5742 5742 5743 5744 5744 5743 5742 5741 5740 5739 5738 5737 5736 5734 5733 5731 5730 5729
5633 5624 5624 5624 5628 5632 5635 5637 5638 5636 5640 5646 5649 5647 5656 5672 5679 5684 5690 5695 5699 5704 5708 5712 5716 5719 5723 5726 5729 5732 5734 5736 5736 5737 5738 5738 5738 5737 5736 5735 5734 5734 5733 5731 5730 5729 5727 5726 5725
5626 5609 5607 5614 5616 5619 5622 5621 5624 5627 5629 5632 5636 5639 5648 5658 5663 5668 5674 5681 5686 5691 5694 5699 5704 5708 5712 5716 5720 5723 5726 5728 5729 5730 5731 5731 5732 5732 5731 5731 5730 5729 5728 5727 5725 5724 5723 5721 5720
5609 5596 5602 5609 5608 5606 5607 5606 5608 5609 5611 5615 5622 5629 5635 5641 5644 5649 5655 5663 5670 5676 5681 5686 5691 5696 5701 5705 5709 5713 5716 5719 5721 5722 5723 5724 5725 5726 5726 5725 5725 5724 5723 5722 5720 5719 5718 5716 5715
5600 5593 5596 5597 5596 5594 5594 5594 5595 5592 5595 5601 5606 5614 5619 5624 5628 5633 5639 5645 5654 5663 5668 5673 5678 5683 5688 5693 5698 5703 5706 5709 5712 5715 5716 5717 5718 5719 5719 5719 5718 5718 5717 5716 5715 5714 5712 5711 5710
5588 5587 5586 5585 5584 5581 5579 5581 5581 5581 5586 5593 5596 5600 5604 5608 5613 5618 5624 5631 5638 5646 5654 5660 5665 5670 5675 5680 5685 5691 5696 5700 5703 5706 5709 5709 5710 5712 5712 5713 5713 5713 5713 5712 5710 5709 5707 5706 5705
5576 5574 5575 5574 5571 5569 5570 5569 5569 5575 5580 5581 5583 5586 5589 5593 5599 5605 5609 5615 5621 5628 5636 5643 5649 5656 5661 5666 5672 5678 5685 5690 5694 5697 5700 5702 5704 5705 5706 5706 5707 5707 5708 5707 5705 5703 5702 5700 5699
5566 5563 5560 5561 5561 5561 5560 5562 5559 5568 5569 5568 5569 5570 5573 5576 5581 5587 5592 5599 5605 5612 5618 5627 5633 5641 5647 5652 5657 5664 5672 5679 5683 5688 5691 5695 5697 5698 5699 5699 5700 5701 5702 5702 5701 5699 5697 5695 5694
5556 5549 5548 5551 5551 5552 5550 5550 5551 5558 5556 5554 5553 5554 5557 5560 5564 5569 5576 5582 5589 5596 5603 5610 5618 5625 5632 5638 5644 5652 5659 5666 5672 5678 5682 5686 5689 5691 5693 5694 5694 5696 5696 5696 5695 5693 5692 5689 5688
5541 5532 5527 5540 5542 5542 5533 5532 5544 5545 5540 5539 5538 5539 5542 5548 5551 5555 5560 5566 5574 5581 5588 5595 5604 5611 5617 5624 5630 5638 5644 5653 5660 5667 5672 5677 5680 5683 5686 5688 5689 5690 5691 5690 5690 5688 5686 5684 5683
5521 5509 5513 5524 5531 5528 5520 5520 5534 5533 5527 5526 5525 5525 5529 5534 5539 5542 5547 5552 5559 5567 5574 5580 5588 5596 5603 5610 5618 5625 5631 5640 5647 5655 5661 5667 5671 5675 5679 5681 5684 5684 5686 5685 5685 5683 5682 5679 5677
5507 5501 5503 5507 5517 5516 5509 5514 5525 5524 5518 5514 5513 5514 5517 5521 5527 5532 5536 5540 5547 5553 5561 5567 5574 5583 5590 5597 5605 5610 5618 5627 5635 5643 5651 5657 5662 5667 5672 5674 5677 5679 5679 5679 5679 5678 5676 5675 5673
5507 5499 5494 5504 5511 5506 5505 5510 5515 5515 5509 5505 5503 5503 5505 5510 5517 5521 5525 5530 5537 5542 5548 5555 5561 5570 5577 5584 5591 5597 5605 5616 5624 5632 5641 5647 5653 5657 5663 5667 5669 5672 5673 5675 5675 5673 5670 5667 5666
5502 5490 5487 5501 5505 5501 5500 5504 5509 5509 5505 5500 5496 5494 5495 5499 5506 5511 5515 5519 5525 5531 5536 5543 5549 5557 5565 5572 5580 5587 5595 5605 5615 5623 5631 5638 5644 5649 5656 5661 5663 5668 5668 5668 5669 5669 5666 5663 5663
5498 5487 5484 5487 5494 5491 5485 5493 5502 5505 5501 5495 5490 5487 5488 5490 5493 5498 5504 5510 5514 5520 5525 5532 5538 5546 5554 5562 5569 5576 5581 5590 5601 5611 5620 5630 5636 5642 5649 5655 5658 5663 5665 5666 5665 5667 5666 5662 5657
5489 5495 5490 5484 5468 5460 5468 5463 5490 5493 5491 5488 5482 5478 5480 5484 5486 5489 5494 5500 5505 5511 5516 5522 5529 5537 5545 5551 5558 5564 5570 5580 5592 5602 5611 5620 5627 5635 5642 5648 5653 5656 5661 5662 5662 5664 5663 5660 5655
5489 5491 5484 5477 5461 5449 5455 5443 5473 5480 5479 5480 5476 5473 5474 5477 5479 5482 5486 5490 5496 5501 5506 5513 5520 5528 5536 5542 5547 5553 5561 5571 5582 5592 5601 5610 5619 5627 5634 5641 5645 5650 5654 5657 5658 5659 5659 5657 5655
5486 5477 5471 5456 5442 5434 5450 5442 5454 5462 5468 5470 5469 5468 5468 5470 5473 5475 5478 5481 5487 5492 5497 5503 5511 5518 5527 5532 5538 5545 5553 5562 5572 5583 5592 5603 5611 5620 5627 5633 5639 5644 5648 5651 5654 5655 5655 5654 5652
5469 5447 5433 5423 5407 5423 5451 5447 5453 5466 5465 5464 5463 5461 5460 5462 5465 5467 5469 5473 5478 5482 5486 5494 5501 5510 5519 5525 5531 5539 5548 5557 5566 5576 5586 5595 5606 5614 5620 5625 5633 5638 5642 5646 5649 5649 5650 5650 5649
5458 5442 5420 5408 5406 5426 5443 5444 5457 5466 5463 5460 5458 5455 5454 5454 5456 5458 5461 5464 5468 5473 5478 5485 5493 5502 5511 5519 5526 5535 5543 5553 5562 5570 5579 5590 5601 5610 5616 5622 5628 5633 5636 5642 5643 5644 5645 5644 5644
5449 5435 5429 5407 5397 5397 5425 5436 5451 5462 5458 5454 5450 5448 5447 5448 5449 5452 5455 5458 5461 5466 5470 5476 5485 5494 5503 5512 5521 5531 5540 5549 5558 5567 5576 5585 5595 5604 5612 5618 5622 5628 5632 5637 5638 5639 5640 5640 5639
5449 5433 5410 5397 5385 5388 5405 5416 5434 5444 5447 5446 5443 5441 5441 5443 5443 5446 5448 5451 5455 5459 5464 5471 5478 5486 5496 5505 5515 5527 5536 5545 5554 5564 5572 5581 5591 5600 5608 5612 5617 5623 5627 5631 5632 5634 5635 5635 5634
5435 5426 5412 5395 5385 5380 5388 5424 5444 5438 5440 5437 5437 5436 5436 5437 5438 5439 5441 5445 5449 5454 5459 5465 5473 5482 5491 5501 5510 5520 5528 5539 5549 5557 5566 5576 5586 5596 5604 5609 5613 5619 5624 5626 5628 5630 5631 5631 5630
5432 5421 5406 5392 5382 5374 5377 5420 5449 5439 5436 5432 5431 5431 5431 5432 5433 5434 5436 5438 5442 5447 5452 5458 5466 5475 5485 5495 5505 5514 5524 5535 5545 5555 5564 5572 5581 5591 5599 5605 5610 5615 5619 5622 5625 5626 5628 5627 5626